����,���ϕ���(m/s),���ϕ���,�ő�u�ԕ���(m/s),�ő啗��������,�C��(��),���x(%),10���Ԉړ��ώZ�J��(mm),1���Ԉړ��ώZ�J��(mm),���J��(mm),�݌v�J��(mm)
2022-09-19T00:00:00+09:00,3.6,��,10.3,�쓌,29.5,59.4,0,0,0,0
2022-09-19T00:01:00+09:00,3.6,��,10.3,�쓌,29.5,59.3,0,0,0,0
2022-09-19T00:02:00+09:00,3.4,��,10.3,�쓌,29.5,59.3,0,0,0,0
2022-09-19T00:03:00+09:00,3.5,��,10,���쓌,29.6,59.1,0,0,0,0
2022-09-19T00:04:00+09:00,3.6,��,10,���쓌,29.6,59,0,0,0,0
2022-09-19T00:05:00+09:00,3.9,��,10,���쓌,29.6,59,0,0,0,0
2022-09-19T00:06:00+09:00,4.1,��,10,���쓌,29.6,59,0,0,0,0
2022-09-19T00:07:00+09:00,4.1,��,10,���쓌,29.6,58.7,0,0,0,0
2022-09-19T00:08:00+09:00,3.9,��,10,���쓌,29.6,58.7,0,0,0,0
2022-09-19T00:09:00+09:00,4,��,10,���쓌,29.5,59,0,0,0,0
2022-09-19T00:10:00+09:00,4,��,10,���쓌,29.5,59.1,0,0,0,0
2022-09-19T00:11:00+09:00,4,��,10,���쓌,29.5,59.1,0,0,0,0
2022-09-19T00:12:00+09:00,3.8,��,10,���쓌,29.6,59,0,0,0,0
2022-09-19T00:13:00+09:00,3.3,��,7.9,���쓌,29.5,58.9,0,0,0,0
2022-09-19T00:14:00+09:00,3,��,7.8,���쓌,29.5,59.1,0,0,0,0
2022-09-19T00:15:00+09:00,2.9,��,5.9,�쓌,29.4,59.4,0,0,0,0
2022-09-19T00:16:00+09:00,2.8,��,5.4,���k��,29.5,59.5,0,0,0,0
2022-09-19T00:17:00+09:00,2.9,��,6.8,��,29.4,59.5,0,0,0,0
2022-09-19T00:18:00+09:00,3.1,��,7.7,���쓌,29.4,59.6,0,0,0,0
2022-09-19T00:19:00+09:00,3.4,��,8.1,���쓌,29.5,59.5,0,0,0,0
2022-09-19T00:20:00+09:00,3.6,��,8.1,���쓌,29.5,59.5,0,0,0,0
2022-09-19T00:21:00+09:00,3.9,��,8.1,���쓌,29.5,59.6,0,0,0,0
2022-09-19T00:22:00+09:00,4.4,��,11.9,���쓌,29.5,59.5,0,0,0,0
2022-09-19T00:23:00+09:00,4.8,��,11.9,���쓌,29.5,59.4,0,0,0,0
2022-09-19T00:24:00+09:00,5,��,11.9,���쓌,29.6,59.2,0,0,0,0
2022-09-19T00:25:00+09:00,5.1,��,11.9,���쓌,29.5,59.2,0,0,0,0
2022-09-19T00:26:00+09:00,5.1,���쓌,11.9,���쓌,29.5,59.3,0,0,0,0
2022-09-19T00:27:00+09:00,5.2,���쓌,11.9,���쓌,29.5,59.4,0,0,0,0
2022-09-19T00:28:00+09:00,5.3,���쓌,11.9,���쓌,29.5,59.4,0,0,0,0
2022-09-19T00:29:00+09:00,5.1,��,11.9,���쓌,29.5,59.3,0,0,0,0
2022-09-19T00:30:00+09:00,5.1,��,11.9,���쓌,29.5,59.4,0,0,0,0
2022-09-19T00:31:00+09:00,5,��,11.9,���쓌,29.5,59.5,0,0,0,0
2022-09-19T00:32:00+09:00,4.7,��,11.9,���쓌,29.5,59.4,0,0,0,0
2022-09-19T00:33:00+09:00,4.3,��,11.9,���쓌,29.4,59.5,0,0,0,0
2022-09-19T00:34:00+09:00,4.2,��,11.9,���쓌,29.4,59.8,0,0,0,0
2022-09-19T00:35:00+09:00,4.1,��,11.9,���쓌,29.3,60.1,0,0,0,0
2022-09-19T00:36:00+09:00,4,��,11.9,���쓌,29.4,60.2,0,0,0,0
2022-09-19T00:37:00+09:00,3.8,��,11.9,���쓌,29.4,60,0,0,0,0
2022-09-19T00:38:00+09:00,3.6,��,11.9,���쓌,29.4,60,0,0,0,0
2022-09-19T00:39:00+09:00,3.7,��,11.9,���쓌,29.4,60,0,0,0,0
2022-09-19T00:40:00+09:00,3.8,��,11.9,���쓌,29.4,60.1,0,0,0,0
2022-09-19T00:41:00+09:00,3.8,��,11.9,���쓌,29.4,60,0,0,0,0
2022-09-19T00:42:00+09:00,3.7,��,8.7,���쓌,29.4,59.8,0,0,0,0
2022-09-19T00:43:00+09:00,4.1,��,8.7,���쓌,29.4,59.8,0,0,0,0
2022-09-19T00:44:00+09:00,4.3,��,8.7,���쓌,29.5,59.7,0,0,0,0
2022-09-19T00:45:00+09:00,4.2,��,8.7,���쓌,29.4,59.7,0,0,0,0
2022-09-19T00:46:00+09:00,4.1,��,8.7,���쓌,29.3,60,0,0,0,0
2022-09-19T00:47:00+09:00,4.1,��,8.7,���쓌,29.3,60.3,0,0,0,0
2022-09-19T00:48:00+09:00,4,��,8.7,���쓌,29.2,60.5,0,0,0,0
2022-09-19T00:49:00+09:00,3.9,��,8.7,���쓌,29.2,60.7,0,0,0,0
2022-09-19T00:50:00+09:00,3.8,��,8.7,���쓌,29.2,60.7,0,0,0,0
2022-09-19T00:51:00+09:00,3.8,��,8.7,���쓌,29.3,60.6,0,0,0,0
2022-09-19T00:52:00+09:00,4,��,9,���쓌,29.4,60.3,0,0,0,0
2022-09-19T00:53:00+09:00,3.8,��,9,���쓌,29.4,60.1,0,0,0,0
2022-09-19T00:54:00+09:00,3.7,��,9,���쓌,29.4,60.2,0,0,0,0
2022-09-19T00:55:00+09:00,3.8,��,9,���쓌,29.3,60.4,0,0,0,0
2022-09-19T00:56:00+09:00,3.9,��,9,���쓌,29.3,60.5,0,0,0,0
2022-09-19T00:57:00+09:00,4.4,��,10.2,���쓌,29.4,60.5,0,0,0,0
2022-09-19T00:58:00+09:00,4.7,��,10.2,���쓌,29.4,60.5,0,0,0,0
2022-09-19T00:59:00+09:00,4.9,��,10.2,���쓌,29.4,60.5,0,0,0,0
2022-09-19T01:00:00+09:00,4.9,��,10.2,���쓌,29.3,60.5,0,0,0,0
2022-09-19T01:01:00+09:00,4.8,��,10.2,���쓌,29.3,60.8,0,0,0,0
2022-09-19T01:02:00+09:00,4.5,��,10.2,���쓌,29.2,61,0,0,0,0
2022-09-19T01:03:00+09:00,4.4,��,10.2,���쓌,29.2,61.1,0,0,0,0
2022-09-19T01:04:00+09:00,4.5,��,10.2,���쓌,29.2,61.2,0,0,0,0
2022-09-19T01:05:00+09:00,4.4,��,10.2,���쓌,29.1,61.4,0,0,0,0
2022-09-19T01:06:00+09:00,4.4,��,10.2,���쓌,29.1,61.6,0,0,0,0
2022-09-19T01:07:00+09:00,4,���k��,8.5,��,29.1,61.9,0,0,0,0
2022-09-19T01:08:00+09:00,3.8,���k��,8.2,���쓌,29,62.1,0,0,0,0
2022-09-19T01:09:00+09:00,4.1,���k��,9.3,���쓌,29.1,62.4,0,0,0,0
2022-09-19T01:10:00+09:00,4.1,��,9.3,���쓌,29.2,62.2,0,0,0,0
2022-09-19T01:11:00+09:00,4.3,��,9.3,���쓌,29.2,62.1,0,0,0,0
2022-09-19T01:12:00+09:00,4.6,��,10.3,���쓌,29.2,61.9,0,0,0,0
2022-09-19T01:13:00+09:00,4.6,��,10.3,���쓌,29.2,62.1,0,0,0,0
2022-09-19T01:14:00+09:00,4.8,��,10.3,���쓌,29.2,61.9,0,0,0,0
2022-09-19T01:15:00+09:00,4.8,��,10.3,���쓌,29.2,62.2,0,0,0,0
2022-09-19T01:16:00+09:00,4.8,��,10.3,���쓌,29.2,62.2,0,0,0,0
2022-09-19T01:17:00+09:00,5,��,10.3,���쓌,29.2,62.4,0,0,0,0
2022-09-19T01:18:00+09:00,4.9,��,10.3,���쓌,29.1,62.4,0,0,0,0
2022-09-19T01:19:00+09:00,4.5,��,10.3,���쓌,29.1,62.4,0,0,0,0
2022-09-19T01:20:00+09:00,4.3,��,10.3,���쓌,29.1,62.6,0,0,0,0
2022-09-19T01:21:00+09:00,4,��,10.3,���쓌,29,62.8,0,0,0,0
2022-09-19T01:22:00+09:00,3.7,��,7.7,���쓌,29,63,0,0,0,0
2022-09-19T01:23:00+09:00,3.7,��,7.7,���쓌,28.9,63.2,0,0,0,0
2022-09-19T01:24:00+09:00,3.5,��,7.5,���쓌,28.9,63.6,0,0,0,0
2022-09-19T01:25:00+09:00,3.4,���k��,6.9,���k��,28.8,64,0,0,0,0
2022-09-19T01:26:00+09:00,3.4,���k��,8,���k��,28.7,64.6,0,0,0,0
2022-09-19T01:27:00+09:00,3.4,��,8,���k��,28.7,65,0,0,0,0
2022-09-19T01:28:00+09:00,3.5,��,8,���k��,28.8,65,0,0,0,0
2022-09-19T01:29:00+09:00,3.8,��,8,���k��,28.7,65.2,0,0,0,0
2022-09-19T01:30:00+09:00,3.8,���k��,8,���k��,28.8,65.5,0,0,0,0
2022-09-19T01:31:00+09:00,3.8,���k��,8,���k��,28.7,65.4,0,0,0,0
2022-09-19T01:32:00+09:00,3.7,���k��,8,���k��,28.6,65.9,0,0,0,0
2022-09-19T01:33:00+09:00,3.7,���k��,8,���k��,28.6,66.2,0,0,0,0
2022-09-19T01:34:00+09:00,3.9,���k��,8,���k��,28.7,66,0,0,0,0
2022-09-19T01:35:00+09:00,3.9,���k��,8,���k��,28.7,65.8,0,0,0,0
2022-09-19T01:36:00+09:00,3.7,��,7.7,��,28.7,65.8,0,0,0,0
2022-09-19T01:37:00+09:00,3.5,��,7.7,��,28.7,65.9,0,0,0,0
2022-09-19T01:38:00+09:00,3.1,��,7.7,��,28.7,66,0,0,0,0
2022-09-19T01:39:00+09:00,3,��,7.7,��,28.6,66.2,0,0,0,0
2022-09-19T01:40:00+09:00,2.9,��,7.7,��,28.6,66.3,0,0,0,0
2022-09-19T01:41:00+09:00,3,���k��,7.7,��,28.5,66.7,0,0,0,0
2022-09-19T01:42:00+09:00,3,���k��,7.7,��,28.4,67.1,0,0,0,0
2022-09-19T01:43:00+09:00,3,���k��,6.9,��,28.4,67.5,0,0,0,0
2022-09-19T01:44:00+09:00,2.7,���k��,6.2,���k��,28.3,67.9,0,0,0,0
2022-09-19T01:45:00+09:00,2.7,���k��,5.5,�k�k��,28.2,68.3,0,0,0,0
2022-09-19T01:46:00+09:00,2.7,���k��,5.5,�k�k��,28.2,68.7,0,0,0,0
2022-09-19T01:47:00+09:00,2.8,�k��,5.5,�k�k��,28.1,69,0,0,0,0
2022-09-19T01:48:00+09:00,3,�k��,5.5,�k�k��,28.1,69.2,0,0,0,0
2022-09-19T01:49:00+09:00,3,�k��,5.7,���k��,28.2,69.5,0,0,0,0
2022-09-19T01:50:00+09:00,3.2,�k��,5.9,���k��,28.3,68.8,0,0,0,0
2022-09-19T01:51:00+09:00,3.2,���k��,5.9,���k��,28.4,68.4,0,0,0,0
2022-09-19T01:52:00+09:00,3.3,���k��,5.9,���k��,28.4,68.3,0,0,0,0
2022-09-19T01:53:00+09:00,3.3,���k��,5.9,���k��,28.3,68.3,0,0,0,0
2022-09-19T01:54:00+09:00,3.5,���k��,5.9,���k��,28.3,68.5,0,0,0,0
2022-09-19T01:55:00+09:00,3.4,���k��,5.9,���k��,28.3,68.6,0,0,0,0
2022-09-19T01:56:00+09:00,3.5,���k��,5.9,���k��,28.3,68.9,0,0,0,0
2022-09-19T01:57:00+09:00,3.6,���k��,5.9,���k��,28.3,68.9,0,0,0,0
2022-09-19T01:58:00+09:00,3.6,���k��,5.9,���k��,28.4,68.6,0,0,0,0
2022-09-19T01:59:00+09:00,3.5,���k��,5.9,���k��,28.4,68.5,0,0,0,0
2022-09-19T02:00:00+09:00,3.3,���k��,5.9,���쓌,28.4,68.5,0,0,0,0
2022-09-19T02:01:00+09:00,3.2,���k��,5.5,�k��,28.4,68.3,0,0,0,0
2022-09-19T02:02:00+09:00,3.1,���k��,5.5,�k��,28.5,68.3,0,0,0,0
2022-09-19T02:03:00+09:00,3,���k��,5.5,�k��,28.5,68.2,0,0,0,0
2022-09-19T02:04:00+09:00,3,���k��,5.5,�k��,28.5,68.1,0,0,0,0
2022-09-19T02:05:00+09:00,2.9,���k��,5.5,�k��,28.5,68.1,0,0,0,0
2022-09-19T02:06:00+09:00,2.9,���k��,6.2,���쓌,28.5,68.4,0,0,0,0
2022-09-19T02:07:00+09:00,2.9,���k��,6.2,���쓌,28.5,68.3,0,0,0,0
2022-09-19T02:08:00+09:00,2.9,���k��,6.2,���쓌,28.5,68.3,0,0,0,0
2022-09-19T02:09:00+09:00,3,���k��,6.2,���쓌,28.5,68.4,0,0,0,0
2022-09-19T02:10:00+09:00,3,���k��,6.2,���쓌,28.4,68.7,0,0,0,0
2022-09-19T02:11:00+09:00,3.1,���k��,6.2,���쓌,28.4,68.9,0,0,0,0
2022-09-19T02:12:00+09:00,3,���k��,6.2,���쓌,28.4,68.8,0,0,0,0
2022-09-19T02:13:00+09:00,3,���k��,6.2,���쓌,28.4,68.9,0,0,0,0
2022-09-19T02:14:00+09:00,2.9,���k��,6.2,���쓌,28.4,68.9,0,0,0,0
2022-09-19T02:15:00+09:00,2.9,���k��,6.2,���쓌,28.4,68.9,0,0,0,0
2022-09-19T02:16:00+09:00,2.8,���k��,5.2,���쓌,28.4,69,0,0,0,0
2022-09-19T02:17:00+09:00,2.6,���k��,4.9,�k��,28.4,69.1,0,0,0,0
2022-09-19T02:18:00+09:00,2.5,���k��,4.9,�k��,28.4,69.1,0,0,0,0
2022-09-19T02:19:00+09:00,2.4,���k��,4.8,�k��,28.3,69.4,0,0,0,0
2022-09-19T02:20:00+09:00,2.4,���k��,4.8,�k��,28.3,69.7,0,0,0,0
2022-09-19T02:21:00+09:00,2.3,���k��,4.5,�k��,28.3,69.8,0,0,0,0
2022-09-19T02:22:00+09:00,2.4,���k��,4.5,�k��,28.3,70.1,0,0,0,0
2022-09-19T02:23:00+09:00,2.4,���k��,4.5,�k��,28.2,70.2,0,0,0,0
2022-09-19T02:24:00+09:00,2.5,���k��,4.5,�k��,28.3,70.2,0,0,0,0
2022-09-19T02:25:00+09:00,2.6,���k��,4.5,�k��,28.3,70.2,0,0,0,0
2022-09-19T02:26:00+09:00,2.7,���k��,4.5,�k��,28.3,70.1,0,0,0,0
2022-09-19T02:27:00+09:00,2.8,���k��,4.5,�k��,28.3,70.1,0,0,0,0
2022-09-19T02:28:00+09:00,3,���k��,6.6,���k��,28.3,70.2,0,0,0,0
2022-09-19T02:29:00+09:00,2.9,���k��,6.6,���k��,28.3,70.2,0,0,0,0
2022-09-19T02:30:00+09:00,2.9,���k��,6.6,���k��,28.3,70.2,0,0,0,0
2022-09-19T02:31:00+09:00,2.9,���k��,6.6,���k��,28.3,70.4,0,0,0,0
2022-09-19T02:32:00+09:00,2.9,���k��,6.6,���k��,28.3,70.2,0,0,0,0
2022-09-19T02:33:00+09:00,2.9,���k��,6.6,���k��,28.3,70.2,0,0,0,0
2022-09-19T02:34:00+09:00,2.8,���k��,6.6,���k��,28.3,70.3,0,0,0,0
2022-09-19T02:35:00+09:00,2.7,���k��,6.6,���k��,28.2,70.4,0,0,0,0
2022-09-19T02:36:00+09:00,2.7,���k��,6.6,���k��,28.2,70.5,0,0,0,0
2022-09-19T02:37:00+09:00,2.7,���k��,6.6,���k��,28.2,70.7,0,0,0,0
2022-09-19T02:38:00+09:00,2.6,���k��,5,�k��,28.2,70.8,0,0,0,0
2022-09-19T02:39:00+09:00,2.6,���k��,5,�k��,28.3,70.8,0,0,0,0
2022-09-19T02:40:00+09:00,2.7,���k��,5,�k��,28.3,70.7,0,0,0,0
2022-09-19T02:41:00+09:00,2.6,���k��,5,�k��,28.5,70.3,0,0,0,0
2022-09-19T02:42:00+09:00,2.5,���k��,4.8,���k��,28.4,69.7,0,0,0,0
2022-09-19T02:43:00+09:00,2.5,���k��,4.8,���k��,28.4,69.9,0,0,0,0
2022-09-19T02:44:00+09:00,2.6,���k��,4.8,���k��,28.3,70,0,0,0,0
2022-09-19T02:45:00+09:00,2.7,���k��,4.8,���k��,28.3,70.2,0,0,0,0
2022-09-19T02:46:00+09:00,2.6,���k��,4.8,���k��,28.2,70.2,0,0,0,0
2022-09-19T02:47:00+09:00,2.5,���k��,4.8,���k��,28.2,70.5,0,0,0,0
2022-09-19T02:48:00+09:00,2.5,���k��,4.8,���k��,28.1,71,0,0,0,0
2022-09-19T02:49:00+09:00,,,,,,,,,,
2022-09-19T02:50:00+09:00,2.6,���k��,5.4,���k��,28.2,71.1,0,0,0,0
2022-09-19T02:51:00+09:00,2.7,���k��,5.4,���k��,28.2,70.9,0,0,0,0
2022-09-19T02:52:00+09:00,2.7,���k��,5.4,���k��,28.2,70.9,0,0,0,0
2022-09-19T02:53:00+09:00,2.7,���k��,5.4,���k��,28.2,71,0,0,0,0
2022-09-19T02:54:00+09:00,2.6,���k��,5.4,���k��,28.2,71.2,0,0,0,0
2022-09-19T02:55:00+09:00,2.7,���k��,5.4,���k��,28.2,71.4,0,0,0,0
2022-09-19T02:56:00+09:00,2.7,���k��,5.4,���k��,28.2,71.1,0,0,0,0
2022-09-19T02:57:00+09:00,2.8,���k��,5.4,���k��,28.2,71.1,0,0,0,0
2022-09-19T02:58:00+09:00,2.7,���k��,5.4,���k��,28.2,71.1,0,0,0,0
2022-09-19T02:59:00+09:00,2.7,���k��,3.9,���k��,28.3,71,0,0,0,0
2022-09-19T03:00:00+09:00,2.6,���k��,3.9,���k��,28.3,70.8,0,0,0,0
2022-09-19T03:01:00+09:00,2.6,���k��,3.9,���k��,28.3,70.8,0,0,0,0
2022-09-19T03:02:00+09:00,2.6,���k��,4.5,���k��,28.3,71,0,0,0,0
2022-09-19T03:03:00+09:00,2.7,��,4.5,���k��,28.5,70.8,0,0,0,0
2022-09-19T03:04:00+09:00,2.8,��,6.9,���쓌,28.5,70.5,0,0,0,0
2022-09-19T03:05:00+09:00,3,��,7.1,��,28.5,71,0,0,0,0
2022-09-19T03:06:00+09:00,3.2,��,7.1,��,28.4,71.3,0,0,0,0
2022-09-19T03:07:00+09:00,3.3,��,7.1,��,28.2,71.9,0,0,0,0
2022-09-19T03:08:00+09:00,3.3,��,7.1,��,28,72.9,0,0,0,0
2022-09-19T03:09:00+09:00,3.3,��,7.1,��,27.8,73.6,0,0,0,0
2022-09-19T03:10:00+09:00,3.4,��,7.1,��,27.7,74.5,0,0,0,0
2022-09-19T03:11:00+09:00,3.4,��,7.1,��,27.6,75.2,0,0,0,0
2022-09-19T03:12:00+09:00,3.3,��,7.1,��,27.4,75.5,0,0,0,0
2022-09-19T03:13:00+09:00,3.1,��,7.1,��,27.4,76,0,0,0,0
2022-09-19T03:14:00+09:00,2.8,���쓌,7.1,��,27.2,76.9,0,0,0,0
2022-09-19T03:15:00+09:00,2.4,���쓌,6.3,���쓌,27,78.4,0,0,0,0
2022-09-19T03:16:00+09:00,2,���쓌,6.3,���쓌,26.8,79.5,0,0,0,0
2022-09-19T03:17:00+09:00,1.7,���쓌,4.9,�쓌,26.7,80.5,0,0,0,0
2022-09-19T03:18:00+09:00,1.5,���쓌,4.9,�쓌,26.4,82.1,0,0,0,0
2022-09-19T03:19:00+09:00,1.4,�쓌,4.9,�쓌,26.3,83.4,0,0,0,0
2022-09-19T03:20:00+09:00,1.2,�쓌,4,��,26.2,84.4,0,0,0,0
2022-09-19T03:21:00+09:00,1,�쓌,2.2,��,26.2,84.7,0,0,0,0
2022-09-19T03:22:00+09:00,1.1,�쓌,2.6,���k��,26.4,85.3,0,0,0,0
2022-09-19T03:23:00+09:00,1.1,�쓌,2.6,���k��,26.2,85.6,0,0,0,0
2022-09-19T03:24:00+09:00,1.1,�쓌,2.6,���k��,26.1,86.2,0,0,0,0
2022-09-19T03:25:00+09:00,1.1,�쓌,2.6,���k��,26,86.8,0,0,0,0
2022-09-19T03:26:00+09:00,1.1,�쓌,2.6,���k��,26,87.8,0,0,0,0
2022-09-19T03:27:00+09:00,1.1,�쓌,2.6,���k��,26.1,88.1,0,0,0,0
2022-09-19T03:28:00+09:00,1.1,�쓌,2.6,���k��,25.8,87.9,0,0,0,0
2022-09-19T03:29:00+09:00,1.1,�쓌,2.6,���k��,25.8,88.7,0,0,0,0
2022-09-19T03:30:00+09:00,1.1,�쓌,2.6,���k��,25.6,89.2,0,0,0,0
2022-09-19T03:31:00+09:00,1.1,�쓌,2.6,���k��,25.6,89.5,0,0,0,0
2022-09-19T03:32:00+09:00,1,�쓌,2.6,��,25.5,90.1,0,0,0,0
2022-09-19T03:33:00+09:00,0.9,���쓌,2.6,��,25.4,90.7,0,0,0,0
2022-09-19T03:34:00+09:00,0.9,���쓌,2.1,��,25.4,91.3,0,0,0,0
2022-09-19T03:35:00+09:00,1,���쓌,2.1,��,25.4,91.8,0,0,0,0
2022-09-19T03:36:00+09:00,1.1,��,2.1,��,25.3,92,0,0,0,0
2022-09-19T03:37:00+09:00,1.2,��,2.1,��,25.3,92.4,0,0,0,0
2022-09-19T03:38:00+09:00,1.1,���k��,2.1,��,25.2,92.9,0,0,0,0
2022-09-19T03:39:00+09:00,1.2,���k��,2.4,���k��,25.2,93.3,0,0,0,0
2022-09-19T03:40:00+09:00,1.3,���k��,3,�k��,25.2,93.5,0,0,0,0
2022-09-19T03:41:00+09:00,1.4,���k��,3,�k��,25.2,93.7,0,0,0,0
2022-09-19T03:42:00+09:00,1.5,���k��,3,�k��,25.2,93.8,0,0,0,0
2022-09-19T03:43:00+09:00,1.5,���k��,3,�k��,25.2,93.9,0,0,0,0
2022-09-19T03:44:00+09:00,1.5,���k��,3,�k��,25.3,94.1,0,0,0,0
2022-09-19T03:45:00+09:00,1.5,���k��,3,�k��,25.3,94.3,0,0,0,0
2022-09-19T03:46:00+09:00,1.5,���k��,3,�k��,25.3,94.2,0,0,0,0
2022-09-19T03:47:00+09:00,1.5,���k��,3,�k��,25.3,94,0,0,0,0
2022-09-19T03:48:00+09:00,1.5,���k��,3,�k��,25.3,94.1,0,0,0,0
2022-09-19T03:49:00+09:00,1.5,���k��,3,�k��,25.3,94,0,0,0,0
2022-09-19T03:50:00+09:00,1.5,���k��,2.5,���k��,25.3,93.8,0,0,0,0
2022-09-19T03:51:00+09:00,1.3,���k��,2.5,���k��,25.3,93.8,0,0,0,0
2022-09-19T03:52:00+09:00,1.1,��,2.1,��,25.4,93.8,0,0,0,0
2022-09-19T03:53:00+09:00,1,���k��,2.1,��,25.4,94,0,0,0,0
2022-09-19T03:54:00+09:00,0.9,���k��,2.1,��,25.4,93.8,0,0,0,0
2022-09-19T03:55:00+09:00,1,��,2.1,��,25.3,93.7,0,0,0,0
2022-09-19T03:56:00+09:00,0.8,��,2,�k��,25.3,93.5,0,0,0,0
2022-09-19T03:57:00+09:00,0.7,��,2,�k��,25.3,93.6,0,0,0,0
2022-09-19T03:58:00+09:00,0.7,���k��,1.8,�k�k��,25.2,93.7,0,0,0,0
2022-09-19T03:59:00+09:00,0.5,���k��,1.8,�k�k��,25.2,93.9,0,0,0,0
2022-09-19T04:00:00+09:00,0.4,�쓌,1.7,��,25.3,94.2,0,0,0,0
2022-09-19T04:01:00+09:00,0.4,��,1.7,��,25.3,94.4,0,0,0,0
2022-09-19T04:02:00+09:00,0.4,��,1.7,��,25.3,94.3,0,0,0,0
2022-09-19T04:03:00+09:00,0.4,���쐼,1.7,��,25.4,94.9,0,0,0,0
2022-09-19T04:04:00+09:00,0.4,�쐼,1.7,��,25.4,94.6,0,0,0,0
2022-09-19T04:05:00+09:00,0.3,�쐼,1.5,��,25.3,94.5,0,0,0,0
2022-09-19T04:06:00+09:00,0.2,�É�,0.6,��,25.3,94.4,0,0,0,0
2022-09-19T04:07:00+09:00,0.2,�É�,0.6,��,25.2,94.2,0,0,0,0
2022-09-19T04:08:00+09:00,0.2,�É�,0.8,��,25.2,94.3,0,0,0,0
2022-09-19T04:09:00+09:00,0.2,�É�,0.8,��,25.2,94.5,0,0,0,0
2022-09-19T04:10:00+09:00,0.3,���쓌,0.8,��,25.2,94.5,0,0,0,0
2022-09-19T04:11:00+09:00,0.3,��,0.9,���k��,25.2,94.6,0,0,0,0
2022-09-19T04:12:00+09:00,0.3,��,0.9,���k��,25.2,94.8,0,0,0,0
2022-09-19T04:13:00+09:00,0.4,��,0.9,���k��,25.2,94.8,0,0,0,0
2022-09-19T04:14:00+09:00,0.4,��,1.2,�쓌,25.1,94.8,0,0,0,0
2022-09-19T04:15:00+09:00,0.5,��,1.3,���쓌,25,94.7,0,0,0,0
2022-09-19T04:16:00+09:00,0.7,��,1.4,�쓌,25,94.6,0,0,0,0
2022-09-19T04:17:00+09:00,0.8,��,1.4,�쓌,25,94.9,0,0,0,0
2022-09-19T04:18:00+09:00,0.8,���쓌,2.1,��쓌,25,95.1,0,0,0,0
2022-09-19T04:19:00+09:00,1,���쓌,2.1,��쓌,25,95.1,0,0,0,0
2022-09-19T04:20:00+09:00,1.1,���쓌,2.1,��쓌,25,95.2,0,0,0,0
2022-09-19T04:21:00+09:00,1,�쓌,2.1,��쓌,25.2,95.5,0,0,0,0
2022-09-19T04:22:00+09:00,1,�쓌,2.1,��쓌,25.3,95.4,0,0,0,0
2022-09-19T04:23:00+09:00,1,���쓌,2.1,��쓌,25.3,95.1,0,0,0,0
2022-09-19T04:24:00+09:00,1,���쓌,2.1,��쓌,25.3,95.1,0,0,0,0
2022-09-19T04:25:00+09:00,1.1,���쓌,2.1,��쓌,25.3,95.1,0,0,0,0
2022-09-19T04:26:00+09:00,1.1,���쓌,2.1,��쓌,25.2,94.9,0,0,0,0
2022-09-19T04:27:00+09:00,1,���쓌,2.1,��쓌,25.1,94.7,0,0,0,0
2022-09-19T04:28:00+09:00,1,���쓌,1.9,��쓌,25.1,94.6,0,0,0,0
2022-09-19T04:29:00+09:00,1,���쓌,1.8,��,25.1,94.8,0,0,0,0
2022-09-19T04:30:00+09:00,1,��,1.8,��,25.1,95,0,0,0,0
2022-09-19T04:31:00+09:00,1,���쓌,1.8,��,25.1,94.9,0,0,0,0
2022-09-19T04:32:00+09:00,1.1,���쓌,1.8,��,25.1,95,0,0,0,0
2022-09-19T04:33:00+09:00,1,���쓌,1.8,��,25,95.1,0,0,0,0
2022-09-19T04:34:00+09:00,1,���쓌,1.8,��,25,95.1,0,0,0,0
2022-09-19T04:35:00+09:00,0.9,��,1.8,��,25,95,0,0,0,0
2022-09-19T04:36:00+09:00,0.9,��,1.8,��,25,95.1,0,0,0,0
2022-09-19T04:37:00+09:00,0.8,��,1.8,��,25,95.2,0,0,0,0
2022-09-19T04:38:00+09:00,0.7,���쓌,1.5,���쓌,25.2,95.5,0,0,0,0
2022-09-19T04:39:00+09:00,0.6,���쓌,1.4,�쓌,25.2,95.4,0,0,0,0
2022-09-19T04:40:00+09:00,0.6,���쓌,1.4,�쓌,25.1,95.2,0,0,0,0
2022-09-19T04:41:00+09:00,0.5,���쓌,1.4,�쓌,25.1,95.3,0,0,0,0
2022-09-19T04:42:00+09:00,0.4,���쓌,1.4,�쓌,25,95.2,0,0,0,0
2022-09-19T04:43:00+09:00,0.4,�쓌,1.4,�쓌,25,95.2,0,0,0,0
2022-09-19T04:44:00+09:00,0.5,��쓌,1.4,�쓌,25,95.2,0,0,0,0
2022-09-19T04:45:00+09:00,0.5,��쐼,1.4,�쓌,24.9,95.2,0,0,0,0
2022-09-19T04:46:00+09:00,0.5,���쐼,1.4,�쓌,24.9,95.3,0,0,0,0
2022-09-19T04:47:00+09:00,0.5,��,1.1,��,24.9,95.3,0,0,0,0
2022-09-19T04:48:00+09:00,0.6,��,1.1,��,24.9,95.4,0,0,0,0
2022-09-19T04:49:00+09:00,0.6,��,1.1,��,24.9,95.3,0,0,0,0
2022-09-19T04:50:00+09:00,0.7,���k��,1.1,��,24.9,95.4,0,0,0,0
2022-09-19T04:51:00+09:00,0.8,��,1.1,��,24.8,95.3,0,0,0,0
2022-09-19T04:52:00+09:00,0.8,��,1.2,��쐼,24.9,95.4,0,0,0,0
2022-09-19T04:53:00+09:00,0.8,��,1.2,��쐼,25,95.5,0,0,0,0
2022-09-19T04:54:00+09:00,0.8,��,1.3,���k��,25.1,95.5,0,0,0,0
2022-09-19T04:55:00+09:00,0.8,��,1.3,���k��,25.2,95.5,0,0,0,0
2022-09-19T04:56:00+09:00,0.8,��,1.3,���k��,25.3,95.4,0,0,0,0
2022-09-19T04:57:00+09:00,0.8,���쐼,2.2,��쐼,25.1,95.1,0,0,0,0
2022-09-19T04:58:00+09:00,0.8,���쐼,2.2,��쐼,25.2,95,0,0,0,0
2022-09-19T04:59:00+09:00,0.8,���쐼,2.2,��쐼,25.3,94.7,0,0,0,0
2022-09-19T05:00:00+09:00,0.8,���쐼,2.2,��쐼,25.3,94.4,0,0,0,0
2022-09-19T05:01:00+09:00,0.8,��,2.2,��쐼,25.3,94.1,0,0,0,0
2022-09-19T05:02:00+09:00,0.7,��,2.2,��쐼,25.4,93.9,0,0,0,0
2022-09-19T05:03:00+09:00,0.8,���쐼,2.2,��쐼,25.4,93.7,0,0,0,0
2022-09-19T05:04:00+09:00,0.9,�쐼,2.2,��쐼,25.3,93.1,0,0,0,0
2022-09-19T05:05:00+09:00,0.9,��쐼,2.2,��쐼,25.3,92.8,0,0,0,0
2022-09-19T05:06:00+09:00,0.9,��쐼,2.2,��쐼,25.4,93.1,0,0,0,0
2022-09-19T05:07:00+09:00,0.8,��쐼,2.2,��쐼,25.6,92.8,0,0,0,0
2022-09-19T05:08:00+09:00,0.7,�쐼,2.1,�쓌,25.7,92.6,0,0,0,0
2022-09-19T05:09:00+09:00,0.7,�쐼,2.1,�쓌,25.7,91.9,0,0,0,0
2022-09-19T05:10:00+09:00,0.7,�쐼,2.1,�쓌,25.7,91.3,0,0,0,0
2022-09-19T05:11:00+09:00,0.7,��,2.1,�쓌,25.6,90.7,0,0,0,0
2022-09-19T05:12:00+09:00,0.8,���쓌,2.3,���쓌,25.6,90.6,0,0,0,0
2022-09-19T05:13:00+09:00,0.8,��,2.3,���쓌,25.8,90.5,0,0,0,0
2022-09-19T05:14:00+09:00,0.8,��,3.1,��쓌,25.7,90.1,0,0,0,0
2022-09-19T05:15:00+09:00,0.8,��,3.1,��쓌,25.7,89.7,0,0,0,0
2022-09-19T05:16:00+09:00,0.9,���쓌,3.1,��쓌,25.9,90.1,0,0,0,0
2022-09-19T05:17:00+09:00,1.1,��,3.3,���쓌,26.4,89.5,0,0,0,0
2022-09-19T05:18:00+09:00,1.3,��,3.7,��,26.5,87.8,0,0,0,0
2022-09-19T05:19:00+09:00,1.3,���쓌,3.7,��,26.3,86,0,0,0,0
2022-09-19T05:20:00+09:00,1.5,���쓌,3.7,��,26.4,85.5,0,0,0,0
2022-09-19T05:21:00+09:00,1.6,��,3.7,��,26.6,84.8,0,0,0,0
2022-09-19T05:22:00+09:00,1.6,��,3.7,��,26.4,83.9,0,0,0,0
2022-09-19T05:23:00+09:00,1.6,���쓌,3.7,��,26.2,83.7,0,0,0,0
2022-09-19T05:24:00+09:00,1.5,��,3.7,��,26,84.3,0,0,0,0
2022-09-19T05:25:00+09:00,1.6,��,3.7,��,25.9,85.1,0,0,0,0
2022-09-19T05:26:00+09:00,1.5,���k��,3.7,��,25.9,85.7,0,0,0,0
2022-09-19T05:27:00+09:00,1.4,���k��,3.7,��,25.9,86.3,0,0,0,0
2022-09-19T05:28:00+09:00,1.4,���k��,3.1,�k,25.8,86.7,0,0,0,0
2022-09-19T05:29:00+09:00,1.7,���k��,6.6,�k��,25.8,87,0,0,0,0
2022-09-19T05:30:00+09:00,1.8,���k��,6.6,�k��,26.3,87.6,0,0,0,0
2022-09-19T05:31:00+09:00,1.8,��,6.6,�k��,26.4,86.3,0,0,0,0
2022-09-19T05:32:00+09:00,1.8,��,6.6,�k��,26.7,85.1,0,0,0,0
2022-09-19T05:33:00+09:00,1.7,��,6.6,�k��,26.5,83.8,0,0,0,0
2022-09-19T05:34:00+09:00,1.7,��,6.6,�k��,26.4,83.4,0,0,0,0
2022-09-19T05:35:00+09:00,1.6,��,6.6,�k��,26.3,83.6,0,0,0,0
2022-09-19T05:36:00+09:00,1.6,���쓌,6.6,�k��,26.3,83.9,0,0,0,0
2022-09-19T05:37:00+09:00,1.5,��,6.6,�k��,26.4,84,0,0,0,0
2022-09-19T05:38:00+09:00,1.4,��,6.6,�k��,26.4,83.8,0,0,0,0
2022-09-19T05:39:00+09:00,1.2,��,4.6,��쓌,26.4,83.8,0,0,0,0
2022-09-19T05:40:00+09:00,0.9,���k��,3.8,��쓌,26.4,83.9,0,0,0,0
2022-09-19T05:41:00+09:00,0.8,���k��,3.8,��쓌,26.4,84,0,0,0,0
2022-09-19T05:42:00+09:00,0.7,���k��,1.5,�k,26.4,84.1,0,0,0,0
2022-09-19T05:43:00+09:00,0.7,���k��,1.7,��,26.4,84.5,0,0,0,0
2022-09-19T05:44:00+09:00,0.7,�k��,2.9,���k��,26.5,84.3,0,0,0,0
2022-09-19T05:45:00+09:00,0.8,�k��,3,���k��,26.6,83.8,0,0,0,0
2022-09-19T05:46:00+09:00,0.9,�k��,4.2,�k�k��,26.8,83,0,0,0,0
2022-09-19T05:47:00+09:00,1,�k��,4.2,�k�k��,27,81.9,0,0,0,0
2022-09-19T05:48:00+09:00,1,���k��,4.2,�k�k��,26.9,80.9,0,0,0,0
2022-09-19T05:49:00+09:00,1,���k��,4.2,�k�k��,26.8,80.6,0,0,0,0
2022-09-19T05:50:00+09:00,1,���k��,4.2,�k�k��,26.7,80.7,0,0,0,0
2022-09-19T05:51:00+09:00,1,�k��,4.2,�k�k��,26.6,80.9,0,0,0,0
2022-09-19T05:52:00+09:00,0.9,�k�k��,4.2,�k�k��,26.7,81.2,0,0,0,0
2022-09-19T05:53:00+09:00,1,�k�k��,4.2,�k�k��,26.5,81.4,0,0,0,0
2022-09-19T05:54:00+09:00,1,�쐼,4.2,�k�k��,26.4,81.8,0,0,0,0
2022-09-19T05:55:00+09:00,0.9,�쐼,4.2,�k�k��,26.5,82.5,0,0,0,0
2022-09-19T05:56:00+09:00,0.8,�쐼,3.9,�k�k��,26.7,82.4,0,0,0,0
2022-09-19T05:57:00+09:00,0.7,�쐼,1.8,���쓌,26.7,81.7,0,0,0,0
2022-09-19T05:58:00+09:00,0.7,��쐼,1.8,���쓌,26.7,81.2,0,0,0,0
2022-09-19T05:59:00+09:00,0.8,��,2.2,�k��,26.6,81.2,0,0,0,0
2022-09-19T06:00:00+09:00,0.8,��쓌,2.2,�k��,26.7,81.4,0,0,0,0
2022-09-19T06:01:00+09:00,0.8,�쓌,2.2,�k��,26.8,81.4,0,0,0,0
2022-09-19T06:02:00+09:00,0.9,�쓌,2.3,�k�k��,26.5,81.2,0,0,0,0
2022-09-19T06:03:00+09:00,1,�쓌,3.3,���쓌,26.5,81.8,0,0,0,0
2022-09-19T06:04:00+09:00,1.1,���쓌,3.7,�k��,26.7,82,0,0,0,0
2022-09-19T06:05:00+09:00,1.3,���쓌,5.4,���k��,27,81.5,0,0,0,0
2022-09-19T06:06:00+09:00,1.6,��,5.4,���k��,27.2,80.2,0,0,0,0
2022-09-19T06:07:00+09:00,1.8,��,5.4,���k��,27.4,78.8,0,0,0,0
2022-09-19T06:08:00+09:00,1.8,��,5.4,���k��,27.4,77.8,0,0,0,0
2022-09-19T06:09:00+09:00,2,��,5.8,���k��,27.4,77.4,0,0,0,0
2022-09-19T06:10:00+09:00,2.3,��,5.8,���k��,27.6,76.9,0,0,0,0
2022-09-19T06:11:00+09:00,2.6,���k��,6.4,���k��,27.6,76.1,0,0,0,0
2022-09-19T06:12:00+09:00,3,���k��,6.4,���k��,27.7,75.8,0,0,0,0
2022-09-19T06:13:00+09:00,3.1,���k��,6.4,���k��,27.7,75.6,0,0,0,0
2022-09-19T06:14:00+09:00,3.2,���k��,6.4,���k��,27.6,75.6,0,0,0,0
2022-09-19T06:15:00+09:00,3.2,���k��,6.4,���k��,27.7,75.7,0,0,0,0
2022-09-19T06:16:00+09:00,3.2,���k��,6.4,���k��,27.7,75.5,0,0,0,0
2022-09-19T06:17:00+09:00,3.3,���k��,6.4,���k��,27.7,75.4,0,0,0,0
2022-09-19T06:18:00+09:00,3.4,���k��,6.4,���k��,27.7,75.3,0,0,0,0
2022-09-19T06:19:00+09:00,3.4,���k��,6.4,���k��,27.7,75.4,0,0,0,0
2022-09-19T06:20:00+09:00,3.2,���k��,6.4,���k��,27.8,75.3,0,0,0,0
2022-09-19T06:21:00+09:00,2.9,���k��,6.1,���k��,27.9,75,0,0,0,0
2022-09-19T06:22:00+09:00,2.8,���k��,5.2,���k��,27.9,74.4,0,0,0,0
2022-09-19T06:23:00+09:00,2.8,���k��,5.2,���k��,28,74.3,0,0,0,0
2022-09-19T06:24:00+09:00,2.8,���k��,5.4,���쓌,28,74.4,0,0,0,0
2022-09-19T06:25:00+09:00,2.8,���k��,5.4,���쓌,28.1,73.9,0,0,0,0
2022-09-19T06:26:00+09:00,2.7,���k��,5.4,���쓌,28.2,72.7,0,0,0,0
2022-09-19T06:27:00+09:00,2.6,���k��,5.4,���쓌,28.1,72.2,0,0,0,0
2022-09-19T06:28:00+09:00,2.4,���k��,5.4,���쓌,28.1,72.4,0,0,0,0
2022-09-19T06:29:00+09:00,2.3,���k��,5.4,���쓌,28.1,72.7,0,0,0,0
2022-09-19T06:30:00+09:00,2.3,���k��,5.4,���쓌,28,72.9,0,0,0,0